Starlink 32037

operational
NORAD ID: 60283 Int'l Des: 2024-132 Owner: SPXS Country: US Constellation: starlink
LEOCIRCULAR

About Starlink 32037

Description loading...

Live Position

Loading 3D Globe...

Upcoming Passes

Altitude History

Altitude vs Time

uPlot chart will show altitude changes over time

Two-Line Element Set

1 60283U 24132F 26018.94982741 .00000002 00000-0 12183-4 0 9993
2 60283 53.1598 283.5645 0001256 75.8760 284.2380 15.30196124 83945
Epoch: Jan 18, 2026 • Age: 12 hours

Current Status

Altitude 493.7 km
Velocity 7.62 km/s
Sub-Earth Point -51.24°S, 70.81°W
Launch Date Jul 28, 2024
Age 1.4 years
Type internet

Technical Details

Classification Payload
Mass 730.00 kg
Dry Mass 700.00 kg
Total Mass 730.00 kg
Length 0.30 m
Diameter 4.10 m
Span 29.00 m
Shape Box + pan
Manufacturer SPXS
Bus Type Starlink V2M
Phase Status In Orbit
Owner/State SPXS/US

Large Constellations

Loading constellations...